Peru, IN

1:15 AM EST on November 22, 2017 (GMT -0500)
Grissom Air Reserve Base

Weather History for KGUS - September, 2014

Change the Weather History Date:

Monday, September 1, 2014

  Actual Average Record
Temperature  
Mean Temperature 75 °F -  
Max Temperature 81 °F 78 °F 94 °F (2011)
Min Temperature 66 °F 59 °F 52 °F (2017)
Cooling Degree Days 10    
Growing Degree Days 25 (Base 50)    
Moisture  
Dew Point 73 °F    
Average Humidity 94    
Maximum Humidity 100    
Minimum Humidity 78    
Precipitation  
Precipitation 0.11 in - - ()
Sea Level Pressure  
Sea Level Pressure 29.87 in    
Wind  
Wind Speed 12 mph (SSW)    
Max Wind Speed 23 mph    
Max Gust Speed 31 mph    
Visibility 10 miles    
Events Rain    
Averages and records for this station are not official NWS values.
T = Trace of Precipitation, MM = Missing Value Source: NWS Daily Summary

Daily Weather History Graph

Daily Weather History Graph

Search for Another Location

Airport or City:

Trip Planner

Search our weather history database for the weather conditions in past years. The results will help you decide how hot, cold, wet, or windy it might be!

Date:

Astronomy

Sep. 01, 2014 Rise Set
Actual Time 7:11 AM EDT 8:16 PM EDT
Civil Twilight 6:43 AM EDT 8:44 PM EDT
Nautical Twilight 6:10 AM EDT 9:18 PM EDT
Astronomical Twilight 5:35 AM EDT 9:52 PM EDT
Moon 1:58 PM EDT (9/1) No Moon Set
Length of Visible Light 14h 01m
Length of Day
13h 05m
Waxing Crescent, 42% of the Moon is Illuminated
Sep 1
Waxing Crescent
Sep 2
First Quarter
Sep 8
Full
Sep 15
Last Quarter
Sep 24
New

Hourly Weather History & Observations

Time (EDT) Temp. Heat Index Dew Point Humidity Pressure Visibility Wind Dir Wind Speed Gust Speed Precip Events Conditions
12:58 AM 70.9 °F - 70.9 °F 100% 29.96 in 10.0 mi SSW 5.8 mph - N/A   Clear
1:58 AM 71.6 °F - 71.6 °F 100% 29.95 in 10.0 mi South 6.9 mph - N/A   Clear
2:58 AM 70.5 °F - 70.5 °F 100% 29.95 in 10.0 mi South 6.9 mph - N/A   Clear
3:58 AM 70.5 °F - 70.5 °F 100% 29.92 in 10.0 mi South 6.9 mph - N/A   Partly Cloudy
4:58 AM 71.4 °F - 71.4 °F 100% 29.91 in 10.0 mi South 9.2 mph - N/A   Scattered Clouds
5:54 AM 71.6 °F - 71.6 °F 100% 29.91 in 9.0 mi South 8.1 mph - N/A Rain Light Rain
5:58 AM 71.6 °F - 71.6 °F 100% 29.91 in 8.0 mi South 9.2 mph - 0.00 in Rain Light Rain
6:03 AM 71.6 °F - 71.6 °F 100% 29.91 in 8.0 mi South 9.2 mph - N/A Rain Light Rain
6:07 AM 71.6 °F - 71.6 °F 100% 29.91 in 10.0 mi South 11.5 mph - N/A   Scattered Clouds
6:58 AM 71.2 °F - 71.2 °F 100% 29.91 in 10.0 mi South 11.5 mph - 0.01 in   Scattered Clouds
7:13 AM 71.6 °F - 71.6 °F 100% 29.91 in 10.0 mi South 11.5 mph - N/A   Mostly Cloudy
7:58 AM 72.0 °F - 72.0 °F 100% 29.91 in 10.0 mi South 10.4 mph - N/A   Mostly Cloudy
8:03 AM 71.6 °F - 71.6 °F 100% 29.90 in 10.0 mi South 12.7 mph - N/A   Scattered Clouds
8:58 AM 74.1 °F - 74.1 °F 100% 29.90 in 10.0 mi SSW 15.0 mph 23.0 mph N/A   Scattered Clouds
9:23 AM 75.2 °F - 75.2 °F 100% 29.89 in 10.0 mi SSW 16.1 mph - N/A   Mostly Cloudy
9:58 AM 75.4 °F - 75.4 °F 100% 29.88 in 10.0 mi SSW 18.4 mph - N/A   Overcast
10:13 AM 75.2 °F - 75.2 °F 100% 29.88 in 10.0 mi SSW 18.4 mph - N/A   Mostly Cloudy
10:30 AM 77.0 °F - 77.0 °F 100% 29.87 in 10.0 mi SSW 18.4 mph - N/A   Mostly Cloudy
10:58 AM 78.3 °F - 75.9 °F 92% 29.86 in 10.0 mi SSW 15.0 mph - N/A   Mostly Cloudy
11:58 AM 78.4 °F - 74.5 °F 88% 29.85 in 10.0 mi SSW 18.4 mph 24.2 mph N/A   Mostly Cloudy
12:23 PM 78.8 °F - 73.4 °F 83% 29.86 in 10.0 mi SW 19.6 mph 25.3 mph N/A   Mostly Cloudy
12:33 PM 78.8 °F - 75.2 °F 89% 29.87 in 10.0 mi SSW 15.0 mph 25.3 mph N/A   Mostly Cloudy
12:53 PM 78.8 °F - 75.2 °F 89% 29.85 in 10.0 mi SSW 18.4 mph 23.0 mph N/A   Mostly Cloudy
12:58 PM 79.2 °F - 74.7 °F 86% 29.83 in 10.0 mi SSW 15.0 mph 23.0 mph N/A   Mostly Cloudy
1:58 PM 79.5 °F - 75.2 °F 87% 29.83 in 10.0 mi SSW 17.3 mph - N/A   Scattered Clouds
2:43 PM 80.6 °F 86.2 °F 75.2 °F 84% 29.84 in 10.0 mi SW 18.4 mph - N/A   Mostly Cloudy
2:48 PM 80.6 °F 86.2 °F 75.2 °F 84% 29.84 in 10.0 mi SSW 18.4 mph 25.3 mph N/A   Mostly Cloudy
2:53 PM 80.6 °F 86.2 °F 75.2 °F 84% 29.84 in 10.0 mi SSW 18.4 mph 25.3 mph N/A   Mostly Cloudy
2:58 PM 80.8 °F 86.9 °F 75.7 °F 85% 29.83 in 10.0 mi SSW 21.9 mph 27.6 mph N/A   Mostly Cloudy
3:39 PM 78.8 °F - 77.0 °F 94% 29.83 in 5.0 mi SW 15.0 mph 31.1 mph N/A Rain Rain
3:58 PM - - - N/A% 29.83 in 10.0 mi West 15.0 mph 27.6 mph 0.10 in Rain Light Rain
4:07 PM 78.8 °F - 77.0 °F 94% 29.83 in 10.0 mi SW 20.7 mph 25.3 mph N/A   Mostly Cloudy
4:55 PM 78.8 °F - 77.0 °F 94% 29.83 in 9.0 mi SW 19.6 mph 26.5 mph N/A Rain Light Rain
4:58 PM 79.2 °F - 76.3 °F 91% 29.83 in 9.0 mi SW 21.9 mph 26.5 mph 0.00 in Rain Light Rain
5:05 PM 77.0 °F - 75.2 °F 94% 29.83 in 10.0 mi SW 15.0 mph 26.5 mph N/A   Mostly Cloudy
5:58 PM 81.1 °F 87.4 °F 75.6 °F 83% 29.82 in 10.0 mi SW 23.0 mph 25.3 mph 0.00 in   Mostly Cloudy
6:58 PM 80.1 °F 84.1 °F 72.5 °F 78% 29.84 in 10.0 mi West 15.0 mph - N/A   Mostly Cloudy
7:58 PM 76.6 °F - 70.9 °F 82% 29.85 in 10.0 mi WSW 9.2 mph - N/A   Clear
8:58 PM 71.8 °F - 70.9 °F 97% 29.86 in 10.0 mi SW 10.4 mph - N/A   Clear
9:58 PM 71.2 °F - 68.5 °F 91% 29.89 in 10.0 mi WSW 9.2 mph - N/A   Clear
10:58 PM 69.1 °F - 68.4 °F 98% 29.90 in 10.0 mi SW 6.9 mph - N/A   Clear
11:58 PM 66.2 °F - 66.2 °F 100% 29.91 in 10.0 mi SW 5.8 mph - N/A   Clear